Location: Sternwarte Stuttgart
(48.7670°N, 9.1830°E)
Time: 11:49:27
(UTC+01:00)

Daily predictions for brighter satellites

Satellite Brightness Start Highest point End
(mag) Time Altitude Azimuth Time Altitude Azimuth Time Altitude Azimuth
Cosmos 1570 Rocket 4.4 17:24:49 10° SSW 17:30:09 70° WNW 17:35:31 10° NNE
Cosmos 1174 3.2 17:28:36 10° SW 17:31:33 75° NW 17:34:45 10° NE
Lacrosse 5 1.9 17:28:59 10° SW 17:34:06 89° SE 17:39:15 10° NE
Cosmos 1844 4.1 17:30:59 10° NNW 17:36:30 45° NE 17:42:02 10° SE
Cosmos 1151 Rocket 4.2 17:34:03 10° NNE 17:37:17 20° ENE 17:40:30 10° ESE
CZ-2C R/B 2.4 17:32:49 10° SSE 17:37:50 84° ENE 17:42:43 10° NNW
COSMOS 2455 4.0 17:33:07 10° WSW 17:38:42 37° NW 17:44:18 10° NNE
ATLAS 3B R/B 3.9 17:34:39 10° W 17:41:26 36° NNW 17:47:56 10° NE
Cosmos 1464 Rocket 4.3 17:35:26 10° NNW 17:41:36 73° W 17:47:42 10° S
SJ-7 4.3 17:39:06 10° SSE 17:43:09 75° ENE 17:47:11 10° N
Cosmos 1076 Rocket 3.5 17:39:06 10° S 17:43:18 69° E 17:47:34 10° NNE
SMAP 3.1 17:40:04 10° SSE 17:44:44 86° ENE 17:49:25 10° NNW
USA 215 3.3 17:39:18 10° ESE 17:45:53 83° NNE 17:52:28 10° NW
Cosmos 1763 Rocket 4.1 17:43:21 10° SSE 17:48:05 36° ESE 17:52:47 10° NE
COSMOS 2428 3.2 17:43:45 10° S 17:49:02 40° ESE 17:54:20 10° NE
Cosmos 2221 3.6 17:46:36 10° NNW 17:50:44 49° W 17:54:51 10° SSW
NOSS 3-2 (A) 3.9 17:46:02 10° WSW 17:52:10 63° NW 17:59:00 10° NE
Cosmos 2237 4.4 17:48:47 10° S 17:54:17 53° ESE 17:59:51 10° NE
Cosmos 389 Rocket 2.5 17:50:45 10° NNW 17:54:23 89° ENE 17:57:57 10° S
NOSS 3-2 (C) 3.8 17:49:05 10° SW 17:55:14 72° NW 18:02:06 10° NE
MOS 1 4.5 17:49:44 10° SSE 17:55:24 81° WSW 18:01:07 10° NNW
Cosmos 2237 Rocket 3.7 17:53:10 10° SE 17:56:36 17° E 17:59:10 13° ENE
Cosmos 1908 3.1 17:55:03 10° N 17:58:56 80° E 18:02:50 10° SSE
COSMOS 2441 4.3 17:54:55 10° SSE 17:59:46 77° ENE 18:04:39 10° N
Resurs 01 Rocket 3.2 18:00:57 12° E 18:03:01 16° ENE 18:05:44 10° NNE
Meteor 2-2 Rocket 4.2 17:58:42 10° N 18:04:21 66° ENE 18:09:56 10° SSE
Thor Agena Rocket 3.5 18:00:52 10° NNE 18:06:11 74° ESE 18:11:23 10° S
Cosmos 1766 Rocket 3.6 18:04:06 10° S 18:08:34 85° W 18:13:03 10° N
SPOT 3 Rocket 4.0 18:03:38 10° S 18:08:45 66° WSW 18:13:55 10° NNW
Cosmos 1484 Rocket 2.7 18:07:11 10° SSE 18:11:05 76° ENE 18:15:05 10° N
COSMO-SKYMED 1 2.9 18:09:05 10° NNE 18:13:16 44° E 18:17:24 10° S
Tsikada Rocket 4.1 18:06:57 10° S 18:13:19 87° E 18:19:48 10° N
Cosmos 2228 Rocket 3.0 18:09:22 10° N 18:13:48 87° E 18:18:13 10° S
Cosmos 1674 2.6 18:12:46 10° S 18:16:36 80° E 18:20:28 10° NNE
Cosmos 1125 Rocket 3.5 18:11:48 10° NNW 18:16:56 55° ENE 18:22:02 10° SE
Cosmos 2322 3.9 18:11:38 10° SW 18:17:18 73° WNW 18:23:02 10° NNE
YAOGAN 1 3.6 18:15:02 10° S 18:19:13 49° W 18:23:27 10° NNW
Cosmos 1814 Rocket 4.1 18:14:09 10° SSW 18:19:30 89° WNW 18:24:55 10° NNE
CZ-4 R/B 3.3 18:16:40 10° SSW 18:20:08 31° W 18:23:40 10° NNW
OTV 4 3.3 18:21:06 10° SSW 18:21:55 11° S 18:22:44 10° SSE
Lacrosse 5 rocket 1.5 18:18:32 10° NW 18:22:10 46° NNE 18:24:12 23° E
IDEFIX/ARIANE 42P 4.0 18:17:20 10° SSW 18:22:16 42° W 18:27:15 10° NNW
Lacrosse 4 Rocket 3.5 18:22:29 10° N 18:23:45 12° NNE 18:23:45 12° NNE
SL-16 R/B 3.8 18:20:31 10° WSW 18:25:27 30° NW 18:30:24 10° NNE
Cosmos 1300 2.8 18:23:20 10° N 18:27:06 52° ENE 18:30:52 10° SSE
Cosmos 1844 Rocket 3.1 18:21:43 10° NNW 18:27:22 68° WSW 18:32:58 10° SSE
CENTAUR R/B 2.6 18:24:13 10° SSW 18:30:21 74° SE 18:36:00 16° NE
Cosmos 1408 Rocket 4.5 18:26:17 10° SSW 18:30:38 51° WNW 18:34:59 10° N
Cosmos 2333 4.1 18:26:11 10° SSW 18:31:45 72° ESE 18:36:40 14° NNE
CZ-4C R/B 4.0 18:27:48 10° NW 18:32:31 22° N 18:36:32 14° NE
BREEZE M DEB (TANK) 2.0 18:29:58 10° WNW 18:33:10 51° SSW 18:34:06 27° SE
Spot 2 Rocket 4.1 18:29:24 10° SE 18:33:49 32° ENE 18:38:15 10° N
Cosmos 332 Rocket 3.8 18:31:38 10° S 18:36:24 64° ESE 18:40:08 17° NNE
Cosmos 1726 2.0 18:32:54 10° N 18:36:41 70° E 18:40:26 10° SSE
Cosmos 1634 Rocket 4.0 18:32:36 10° N 18:38:51 88° W 18:45:02 10° S
Cosmos 841 Rocket 3.4 18:35:17 10° SSW 18:40:33 81° ESE 18:45:20 13° NNE
Cosmos 1980 4.1 18:37:49 10° S 18:43:06 41° ESE 18:45:36 26° ENE
Cosmos 2360 Rocket 3.2 18:38:00 10° SW 18:43:23 45° NW 18:48:47 10° NNE
SKYMED 3 4.5 18:39:01 10° NNE 18:43:25 87° ESE 18:47:45 10° SSW
SL-19 R/B 4.4 18:38:26 10° SE 18:44:09 53° ENE 18:49:37 10° N
Cosmos 1328 3.6 18:42:27 10° S 18:46:23 71° E 18:49:21 17° NNE
Cosmos 1743 Rocket 4.1 18:47:14 10° SSW 18:51:39 63° WNW 18:56:08 10° N
Meteor 1-28 Rocket 3.0 18:49:54 22° NNE 18:52:13 79° ESE 18:55:55 10° S
Cosmos 2333 Rocket 2.3 18:47:05 10° S 18:52:35 55° ESE 18:55:28 28° NE
Cosmos 2058 3.0 18:50:22 10° S 18:54:20 50° E 18:55:00 45° ENE
SJ-6B 2.8 18:53:16 10° SSE 18:57:19 80° ENE 19:01:28 10° NNW
Meteor 1-27 4.2 18:52:16 10° N 18:58:06 81° E 19:03:56 10° SSE
ALOS 2.4 18:54:55 10° SE 18:59:25 50° ENE 19:03:57 10° N
FENGYUN 3A 3.7 18:55:09 10° SE 19:00:20 53° ENE 19:05:34 10° N
SKYMED 2 4.0 18:57:08 10° N 19:01:27 63° WNW 19:05:43 10° SSW
Cosmos 44 3.8 18:58:59 10° S 19:03:52 41° ESE 19:04:14 40° ESE
Cosmos 836 Rocket 4.4 19:01:42 10° SSW 19:06:56 86° ESE 19:10:06 25° NNE
ATLAS 5 CENTAUR R/B 3.8 19:03:21 10° NW 19:07:12 19° N 19:08:12 18° NNE
Timation 1 Rocket 4.2 19:01:15 10° NNW 19:07:17 69° ENE 19:11:12 23° SE
Cosmos 371 Rocket 3.2 19:02:37 10° SSW 19:07:25 89° ESE 19:09:48 31° NNE
Orbus 7S? 4.1 19:06:09 10° NW 19:09:46 58° NNE 19:11:23 42° E
Cosmos 2278 Rocket 2.5 19:04:50 10° NNW 19:10:30 69° WSW 19:16:08 10° SSE
Cosmos 2219 Rocket 2.1 19:05:27 10° SSW 19:11:07 88° WNW 19:14:21 27° NNE
Cosmos 2322 Rocket 4.5 19:07:33 10° WNW 19:11:14 17° NW 19:14:53 10° N
Cosmos 1805 Rocket 4.5 19:06:59 10° SSE 19:09:44 33° SE 19:09:44 33° SE
Cosmos 2151 3.0 19:09:07 10° SSW 19:13:19 77° W 19:15:46 25° N
Meteor 2-10 4.1 19:09:52 10° NNW 19:14:56 76° W 19:20:04 10° S
Cosmos 1151 Rocket 4.1 19:11:01 10° NNW 19:15:04 44° W 19:19:08 10° SSW
METEOR-M 4.4 19:10:39 10° S 19:15:58 68° WSW 19:21:20 10° NNW
NOSS 0 Rocket 3.8 19:10:53 10° SSW 19:17:05 76° ESE 19:19:58 34° NE
Lacrosse 5 2.8 19:12:48 10° W 19:17:34 38° NNW 19:18:54 32° NNE
Cosmos 44 Rocket 3.2 19:20:56 10° SW 19:26:04 87° SE 19:26:50 65° NE
Cosmos 1943 Rocket 4.3 19:24:43 10° N 19:25:41 12° NNE 19:25:41 12° NNE
Cosmos 1340 Rocket 3.9 19:24:36 10° S 19:26:53 33° S 19:26:53 33° S
Cosmos 2279 Rocket 4.5 19:26:31 10° NNW 19:32:37 61° W 19:38:43 10° S
COSMOS 2428 3.8 19:27:58 10° WSW 19:33:20 40° NW 19:37:11 18° N
Cosmos 1900 4.2 19:28:57 10° NW 19:33:43 76° NNE 19:33:43 76° NNE
ATLAS 3B R/B 4.1 19:28:36 10° NW 19:34:17 24° N 19:36:18 21° NNE
Resurs 01 Rocket 1.7 19:38:30 66° SSW 19:38:58 73° WSW 19:43:27 10° NNW
Cosmos 2237 Rocket 2.1 19:34:15 10° SSW 19:39:53 86° WNW 19:41:03 58° NNE
Cosmos 2369 Rocket 3.9 19:38:08 10° NNW 19:40:28 20° N 19:40:28 20° N
SL-16 R/B 3.3 19:38:10 10° S 19:41:06 30° SSE 19:41:06 30° SSE
Cosmos 2297 3.8 19:42:20 10° NNW 19:48:01 72° WSW 19:49:48 45° S
Cosmos 540 Rocket 3.9 19:48:45 10° SW 19:53:51 58° WNW 19:54:44 50° NNW
Nadezhda 4 Rocket 3.9 19:51:29 10° S 19:57:44 90° SE 19:59:25 52° N
Lacrosse 5 rocket 3.2 19:57:47 10° WNW 19:59:57 27° W 19:59:57 27° W
BREEZE-M DEB (TANK) 4.1 19:45:59 10° W 20:03:09 86° N 20:03:30 80° ENE
Lacrosse 4 Rocket 4.0 19:59:42 10° NNW 20:00:07 13° NNW 20:00:07 13° NNW
CENTAUR R/B 3.7 20:15:38 10° W 20:21:39 38° NNW 20:23:12 34° N
CZ-4C R/B 4.0 20:17:37 10° NW 20:21:44 27° N 20:21:44 27° N
Cosmos 2333 Rocket 3.7 20:32:10 10° WSW 20:37:10 31° NW 20:37:31 31° NW
ATLAS 5 CENTAUR R/B 4.4 20:48:15 10° NNW 20:49:46 18° NNW 20:49:46 18° NNW
Cosmos 2219 Rocket 4.3 20:51:40 10° W 20:55:54 21° NW 20:56:07 21° NW
Lacrosse 5 4.4 20:56:55 10° WNW 20:58:06 16° NW 20:58:06 16° NW
